Météo par heure à Justynow

Ce jour, 16 Juin, Mercredi

Heure Température Précipitation Vent Pression Humidité
00:00 +18°C° 0.1 mm 1 m/s 743 mmHg 88%
01:00 +16°C° 0 mm 1 m/s 743 mmHg 89%
02:00 +16°C° 0 mm 2 m/s 743 mmHg 92%
03:00 +15°C° 0 mm 2 m/s 743 mmHg 94%
04:00 +14°C° 0 mm 3 m/s 743 mmHg 96%
05:00 +14°C° 0 mm 3 m/s 743 mmHg 93%
06:00 +16°C° 0 mm 3 m/s 744 mmHg 89%
07:00 +17°C° 0 mm 3 m/s 744 mmHg 86%
08:00 +18°C° 0 mm 3 m/s 744 mmHg 81%
09:00 +20°C° 0 mm 2 m/s 744 mmHg 75%
10:00 +21°C° 0 mm 2 m/s 744 mmHg 69%
11:00 +23°C° 0.1 mm 2 m/s 744 mmHg 66%
12:00 +24°C° 0.1 mm 2 m/s 744 mmHg 63%
13:00 +25°C° 0 mm 2 m/s 744 mmHg 60%
14:00 +25°C° 0.1 mm 2 m/s 744 mmHg 60%
15:00 +25°C° 0.1 mm 2 m/s 744 mmHg 60%
16:00 +25°C° 0.1 mm 2 m/s 744 mmHg 59%
17:00 +24°C° 0 mm 2 m/s 744 mmHg 64%
18:00 +23°C° 0 mm 2 m/s 744 mmHg 70%
19:00 +21°C° 0 mm 2 m/s 744 mmHg 75%
20:00 +19°C° 0 mm 2 m/s 744 mmHg 77%
21:00 +18°C° 0 mm 3 m/s 744 mmHg 80%
22:00 +17°C° 0 mm 3 m/s 744 mmHg 82%
23:00 +16°C° 0 mm 3 m/s 744 mmHg 85%

Demain, 17 Juin, Jeudi

Heure Température Précipitation Vent Pression Humidité
00:00 +16°C° 0 mm 3 m/s 745 mmHg 88%
01:00 +16°C° 0 mm 3 m/s 745 mmHg 92%
02:00 +14°C° 0 mm 3 m/s 745 mmHg 92%
03:00 +14°C° 0 mm 3 m/s 744 mmHg 93%
04:00 +14°C° 0 mm 3 m/s 744 mmHg 94%
05:00 +17°C° 0 mm 3 m/s 745 mmHg 88%
06:00 +18°C° 0 mm 3 m/s 745 mmHg 82%
07:00 +20°C° 0 mm 3 m/s 745 mmHg 76%
08:00 +21°C° 0 mm 4 m/s 745 mmHg 70%
09:00 +23°C° 0 mm 4 m/s 746 mmHg 64%
10:00 +25°C° 0 mm 4 m/s 746 mmHg 59%
11:00 +26°C° 0 mm 4 m/s 746 mmHg 55%
12:00 +26°C° 0 mm 4 m/s 745 mmHg 51%
13:00 +27°C° 0 mm 3 m/s 745 mmHg 47%
14:00 +27°C° 0 mm 3 m/s 745 mmHg 47%
15:00 +27°C° 0 mm 4 m/s 745 mmHg 47%
16:00 +27°C° 0 mm 4 m/s 745 mmHg 47%
17:00 +26°C° 0 mm 4 m/s 745 mmHg 54%
18:00 +23°C° 0 mm 4 m/s 745 mmHg 62%
19:00 +21°C° 0 mm 4 m/s 745 mmHg 69%
20:00 +20°C° 0 mm 4 m/s 745 mmHg 71%
21:00 +19°C° 0 mm 4 m/s 745 mmHg 73%
22:00 +18°C° 0 mm 3 m/s 745 mmHg 75%
23:00 +17°C° 0 mm 3 m/s 745 mmHg 76%

Après-demain, 18 Juin, Vendredi

Heure Température Précipitation Vent Pression Humidité
00:00 +17°C° 0 mm 3 m/s 745 mmHg 77%
01:00 +16°C° 0 mm 3 m/s 745 mmHg 77%
02:00 +16°C° 0 mm 3 m/s 745 mmHg 81%
03:00 +16°C° 0 mm 3 m/s 745 mmHg 85%
04:00 +16°C° 0 mm 3 m/s 745 mmHg 89%
05:00 +18°C° 0 mm 4 m/s 745 mmHg 84%
06:00 +20°C° 0 mm 4 m/s 745 mmHg 78%
07:00 +22°C° 0 mm 5 m/s 745 mmHg 72%
08:00 +23°C° 0 mm 5 m/s 745 mmHg 66%
09:00 +26°C° 0 mm 5 m/s 745 mmHg 60%
10:00 +27°C° 0 mm 5 m/s 745 mmHg 54%
11:00 +28°C° 0 mm 5 m/s 745 mmHg 52%
12:00 +29°C° 0 mm 5 m/s 744 mmHg 49%
13:00 +30°C° 0 mm 5 m/s 744 mmHg 47%
14:00 +30°C° 0 mm 5 m/s 744 mmHg 48%
15:00 +30°C° 0 mm 5 m/s 744 mmHg 49%
16:00 +30°C° 0 mm 5 m/s 744 mmHg 51%
17:00 +28°C° 0 mm 4 m/s 744 mmHg 57%
18:00 +27°C° 0 mm 4 m/s 743 mmHg 64%
19:00 +25°C° 0 mm 4 m/s 743 mmHg 71%
20:00 +23°C° 0 mm 4 m/s 743 mmHg 74%
21:00 +22°C° 0 mm 4 m/s 744 mmHg 77%
22:00 +21°C° 0 mm 4 m/s 744 mmHg 81%
23:00 +20°C° 0 mm 4 m/s 744 mmHg 84%

19 Juin, Samedi

Heure Température Précipitation Vent Pression Humidité
00:00 +19°C° 0 mm 3 m/s 744 mmHg 87%
01:00 +18°C° 0 mm 3 m/s 743 mmHg 90%
02:00 +18°C° 0 mm 3 m/s 743 mmHg 91%
03:00 +18°C° 0 mm 3 m/s 743 mmHg 92%
04:00 +18°C° 0 mm 3 m/s 743 mmHg 93%
05:00 +19°C° 0 mm 4 m/s 743 mmHg 86%
06:00 +21°C° 0 mm 4 m/s 743 mmHg 80%
07:00 +23°C° 0 mm 5 m/s 743 mmHg 74%
08:00 +25°C° 0 mm 5 m/s 743 mmHg 68%
09:00 +27°C° 0 mm 5 m/s 743 mmHg 61%
10:00 +28°C° 0 mm 5 m/s 743 mmHg 55%
11:00 +29°C° 0 mm 5 m/s 743 mmHg 52%
12:00 +30°C° 0 mm 5 m/s 743 mmHg 49%
13:00 +32°C° 0 mm 4 m/s 743 mmHg 46%
14:00 +32°C° 0 mm 4 m/s 742 mmHg 47%
15:00 +32°C° 0 mm 4 m/s 742 mmHg 47%
16:00 +32°C° 0 mm 4 m/s 742 mmHg 47%
17:00 +29°C° 0 mm 4 m/s 742 mmHg 55%
18:00 +28°C° 0 mm 3 m/s 742 mmHg 62%
19:00 +27°C° 0 mm 3 m/s 742 mmHg 70%
20:00 +25°C° 0 mm 3 m/s 742 mmHg 74%
21:00 +24°C° 0 mm 3 m/s 742 mmHg 78%
22:00 +21°C° 0 mm 3 m/s 742 mmHg 82%
23:00 +21°C° 0 mm 3 m/s 742 mmHg 85%

20 Juin, Dimanche

Heure Température Précipitation Vent Pression Humidité
00:00 +20°C° 0 mm 3 m/s 742 mmHg 88%
01:00 +20°C° 0 mm 3 m/s 742 mmHg 90%
02:00 +19°C° 0 mm 3 m/s 742 mmHg 91%
03:00 +19°C° 0 mm 3 m/s 742 mmHg 92%
04:00 +18°C° 0 mm 3 m/s 741 mmHg 92%
05:00 +20°C° 0 mm 3 m/s 742 mmHg 85%
06:00 +21°C° 0 mm 3 m/s 742 mmHg 78%
07:00 +23°C° 0 mm 4 m/s 742 mmHg 71%
08:00 +25°C° 0 mm 4 m/s 742 mmHg 66%
09:00 +26°C° 0 mm 4 m/s 742 mmHg 60%
10:00 +28°C° 0 mm 4 m/s 742 mmHg 55%
11:00 +28°C° 0 mm 4 m/s 741 mmHg 52%
12:00 +29°C° 0 mm 3 m/s 741 mmHg 49%
13:00 +30°C° 0 mm 3 m/s 741 mmHg 46%
14:00 +30°C° 0 mm 3 m/s 741 mmHg 46%
15:00 +30°C° 0 mm 3 m/s 741 mmHg 47%
16:00 +30°C° 0 mm 3 m/s 740 mmHg 47%
17:00 +29°C° 0 mm 3 m/s 740 mmHg 54%
18:00 +27°C° 0 mm 3 m/s 740 mmHg 61%
19:00 +26°C° 0 mm 3 m/s 740 mmHg 68%
20:00 +25°C° 0 mm 3 m/s 740 mmHg 71%
21:00 +22°C° 0 mm 4 m/s 740 mmHg 73%
22:00 +21°C° 0 mm 4 m/s 740 mmHg 76%
23:00 +21°C° 0 mm 4 m/s 740 mmHg 79%

21 Juin, Lundi

Heure Température Précipitation Vent Pression Humidité
00:00 +20°C° 0 mm 3 m/s 740 mmHg 82%
01:00 +19°C° 0 mm 3 m/s 739 mmHg 85%
02:00 +19°C° 0 mm 3 m/s 739 mmHg 87%
03:00 +19°C° 0 mm 3 m/s 739 mmHg 89%
04:00 +18°C° 0 mm 3 m/s 739 mmHg 91%
05:00 +20°C° 0 mm 4 m/s 739 mmHg 85%
06:00 +22°C° 0 mm 4 m/s 739 mmHg 78%
07:00 +25°C° 0 mm 5 m/s 739 mmHg 72%
08:00 +26°C° 0 mm 5 m/s 739 mmHg 66%
09:00 +28°C° 0 mm 5 m/s 739 mmHg 60%
10:00 +29°C° 0 mm 5 m/s 739 mmHg 55%
11:00 +30°C° 0 mm 5 m/s 739 mmHg 51%
12:00 +32°C° 0 mm 5 m/s 739 mmHg 47%
13:00 +33°C° 0 mm 4 m/s 739 mmHg 43%
14:00 +33°C° 0 mm 4 m/s 739 mmHg 43%
15:00 +33°C° 0 mm 4 m/s 738 mmHg 43%
16:00 +33°C° 0 mm 4 m/s 738 mmHg 43%
17:00 +30°C° 0 mm 4 m/s 738 mmHg 50%
18:00 +28°C° 0 mm 4 m/s 738 mmHg 57%
19:00 +26°C° 0 mm 4 m/s 738 mmHg 65%
20:00 +25°C° 0 mm 4 m/s 738 mmHg 68%
21:00 +23°C° 0 mm 4 m/s 738 mmHg 72%
22:00 +22°C° 0 mm 3 m/s 738 mmHg 75%
23:00 +21°C° 0 mm 3 m/s 738 mmHg 78%
Voir plus

Nous avons besoin de votre consentement

Meteoprog et ses fournisseurs de services peuvent stocker et accéder à des données personnelles telles que des cookies, des identifiants d'appareils ou d'autres technologies similaires sur votre appareil et traiter ces données pour personnaliser le contenu et les publicités, ainsi que pour fournir des fonctionnalités de médias sociaux et analyser le trafic.

  • Stocker et/ou accéder à des informations sur votre appareil

    Des cookies, des identifiants d'appareils ou d'autres informations peuvent être stockés ou accessibles sur votre appareil aux fins indiquées ci-dessus.

  • Annonces et contenus personnalisés, mesure des annonces et des contenus, connaissance de l'audience et développement de produits

    Les annonces et le contenu peuvent être personnalisés en fonction d'un profil. D'autres données peuvent être ajoutées pour mieux personnaliser les annonces et le contenu. Les performances des publicités et du contenu peuvent être mesurées. Il est possible d'obtenir des informations sur le public qui a vu les publicités et le contenu. Ces données peuvent être utilisées pour développer ou améliorer l'expérience de l'utilisateur, les systèmes et les logiciels.

En cliquant sur "J'accepte", vous autorisez l'utilisation de cookies, des identifiants d'appareils, des balises web ou d'autres technologies similaires. Vos paramètres peuvent être modifiés dans le navigateur de votre appareil.

Dans certains cas, des intérêts légitimes peuvent être invoqués plutôt qu'un consentement. Vous pouvez en savoir plus à ce sujet dans notre Politique de confidentialité et de cookies.